Date,TemperatureHighF,TemperatureAvgF,TemperatureLowF,DewpointHighF,DewpointAvgF,DewpointLowF,HumidityHigh,HumidityAvg,HumidityLow,PressureMaxIn,PressureMinIn,WindSpeedMaxMPH,WindSpeedAvgMPH,GustSpeedMaxMPH,PrecipitationSumIn
2013-2-1,42,31,24,27,24,19,90,78,55,30.02,29.77,14,4,0,0.05
2013-2-2,35,26,11,25,21,7,90,79,64,30.14,30.02,13,2,0,0.01
2013-2-3,34,16,6,23,12,3,90,84,66,30.06,29.95,4,0,0,0.01
2013-2-4,33,23,10,25,19,7,91,85,71,30.02,29.86,7,1,0,0.00
2013-2-5,44,34,27,25,22,16,78,63,45,29.87,29.47,10,2,0,0.00
2013-2-6,32,25,18,24,19,13,89,77,58,30.16,29.48,9,2,0,0.01
2013-2-7,27,15,2,16,9,-3,87,77,61,30.21,30.02,2,0,0,0.00
2013-2-8,35,27,16,23,17,7,86,67,52,30.02,29.62,11,2,0,0.00
2013-2-9,39,25,19,21,18,15,88,77,46,29.75,29.57,4,0,0,0.00
2013-2-10,23,16,0,18,8,-8,88,73,57,30.16,29.75,17,4,0,0.01
2013-2-11,21,4,-9,6,-3,-14,82,71,51,30.49,30.16,4,0,0,0.01
2013-2-12,25,19,2,19,13,-3,87,80,69,30.49,30.33,10,2,0,0.00
2013-2-13,29,26,23,24,21,19,87,82,77,30.33,30.10,13,6,0,0.00
2013-2-14,35,24,12,24,18,9,90,78,53,30.35,30.12,5,1,0,0.02
2013-2-15,33,24,16,21,18,12,88,77,60,30.47,30.35,7,1,0,0.00
2013-2-16,41,30,24,25,21,16,82,71,52,30.44,29.84,9,1,0,0.00
2013-2-17,35,26,17,25,17,10,89,69,52,29.96,29.69,23,5,0,0.01
2013-2-18,30,20,8,16,11,2,82,70,49,30.10,29.97,6,1,0,0.00
2013-2-19,37,24,3,25,14,-2,89,68,43,29.98,29.66,15,4,0,0.00
2013-2-20,31,23,15,24,18,11,89,82,62,29.75,29.59,11,2,0,0.02
2013-2-21,25,20,15,20,16,12,89,84,72,29.98,29.75,6,2,0,0.10
2013-2-22,27,19,9,19,14,6,88,80,63,30.12,29.95,9,2,0,0.01
2013-2-23,26,22,15,22,18,10,90,84,68,29.94,29.64,19,5,0,0.03
2013-2-24,24,11,-4,13,4,-9,87,75,58,30.39,29.94,3,1,0,0.03
2013-2-25,27,19,4,16,12,-1,87,75,59,30.40,30.02,9,2,0,0.00
2013-2-26,26,16,3,15,10,-2,88,79,62,30.40,30.00,6,1,0,0.02
2013-2-27,30,16,4,15,9,-1,86,74,52,30.50,30.40,5,1,0,0.00
2013-2-28,30,21,9,22,16,4,88,79,66,30.51,30.43,5,2,0,0.01